This is the latest recevied weather packets stored in our database for station/object KR4KUV. If no packets are shown the sender has not sent any weather packets the latest 10 day(s).
| Time | Temp. | Humidity | Pressure | Rain* | Wind** | Luminosity | Snow |
|---|---|---|---|---|---|---|---|
| 1788053987 | 23.89° C | 90% | 1023.3 hPa | 0 mm | - | 0 W/m² | - |
| 1788053683 | 24.44° C | 90% | 1023.3 hPa | 0 mm | - | 0 W/m² | - |
| 1788053382 | 24.44° C | 89% | 1023 hPa | 0 mm | - | 0 W/m² | - |
| 1788053078 | 24.44° C | 88% | 1023 hPa | 0 mm | - | 0 W/m² | - |
| 1788052774 | 24.44° C | 87% | 1022.9 hPa | 0 mm | - | 0 W/m² | - |
| 1788052469 | 25° C | 87% | 1022.6 hPa | 0 mm | - | 0 W/m² | - |
| 1788052170 | 25.56° C | 85% | 1022.8 hPa | 0 mm | - | 0 W/m² | - |
| 1788051864 | 25.56° C | 85% | 1022.7 hPa | 0 mm | - | 0 W/m² | - |
| 1788051559 | 25.56° C | 84% | 1022.6 hPa | 0 mm | - | 0 W/m² | - |
| 1788051257 | 25.56° C | 83% | 1022.5 hPa | 0 mm | - | 0 W/m² | - |
| 1788050956 | 25.56° C | 84% | 1022.7 hPa | 0 mm | - | 0 W/m² | - |
| 1788050652 | 26.11° C | 83% | 1022.4 hPa | 0 mm | - | 0 W/m² | - |
| 1788050351 | 26.11° C | 82% | 1022.4 hPa | 0 mm | - | 0 W/m² | - |
| 1788050051 | 26.11° C | 81% | 1022.3 hPa | 0 mm | - | 0 W/m² | - |
| 1788049748 | 26.67° C | 80% | 1022.2 hPa | 0 mm | - | 0 W/m² | - |
| 1788049444 | 26.67° C | 80% | 1022.1 hPa | 0 mm | - | 0 W/m² | - |
| 1788049139 | 26.67° C | 80% | 1022.1 hPa | 0 mm | - | 0 W/m² | - |
| 1788048835 | 26.67° C | 80% | 1021.9 hPa | 0 mm | - | 0 W/m² | - |
| 1788048534 | 26.67° C | 80% | 1022 hPa | 0 mm | - | 0 W/m² | - |
| 1788048233 | 27.22° C | 79% | 1021.9 hPa | 0 mm | - | 1 W/m² | - |
| 1788047930 | 27.22° C | 80% | 1022 hPa | 0 mm | - | 1 W/m² | - |
| 1788047625 | 26.67° C | 88% | 1021.8 hPa | 0 mm | - | 2 W/m² | - |
| 1788047319 | 26.67° C | 87% | 1021.8 hPa | 0 mm | - | 4 W/m² | - |
| 1788047014 | 27.22° C | 86% | 1021.8 hPa | 0 mm | - | 9 W/m² | - |
| 1788046713 | 26.67° C | 86% | 1021.8 hPa | 0 mm | - | 14 W/m² | - |
* Rain latest hour (hover to see other rain measurements)
** Current wind speed in m/s (hover to see current wind gust speed)